![]() |
EMODnet Physics ERDDAP
Easier access to scientific data |
log in|
Brought to you by EMODnet Physics |
| Dataset Title: | NDBC - Collection of dew point temperature (DEWT) TimeSeries - IN SITU MultiPointTimeSeriesObservation
|
| Institution: | NDBC (Dataset ID: TS_DEWT_NDBC) |
| Information: | Summary
| License
| FGDC
| ISO 19115
| Metadata
| Background
| Subset
| Data Access Form
| Make a graph
|
| Name | Last modified | Size | Description | |
|---|---|---|---|---|
| Parent Directory | - | - | ||
| 44017_TS_DEWT_012003.nc | 01-Jan-2025 23:35 | 1477055 | ||
| 44017_TS_DEWT_012004.nc | 01-Jan-2025 23:37 | 1476766 | ||
| 44017_TS_DEWT_012005.nc | 01-Jan-2025 23:39 | 1477091 | ||
| 44017_TS_DEWT_012006.nc | 01-Jan-2025 23:41 | 1476178 | ||
| 44017_TS_DEWT_012007.nc | 01-Jan-2025 23:43 | 1470791 | ||
| 44017_TS_DEWT_012008.nc | 01-Jan-2025 23:45 | 1476443 | ||
| 44017_TS_DEWT_012011.nc | 01-Jan-2025 23:49 | 1475641 | ||
| 44017_TS_DEWT_012013.nc | 01-Jan-2025 23:50 | 1476005 | ||
| 44017_TS_DEWT_012014.nc | 01-Jan-2025 23:52 | 1476938 | ||
| 44017_TS_DEWT_012016.nc | 01-Jan-2025 23:56 | 1476663 | ||
| 44017_TS_DEWT_012017.nc | 01-Jan-2025 23:58 | 1476916 | ||
| 44017_TS_DEWT_012019.nc | 02-Jan-2025 00:01 | 1475887 | ||
| 44017_TS_DEWT_012021.nc | 02-Jan-2025 00:06 | 1476919 | ||
| 44017_TS_DEWT_012022.nc | 02-Jan-2025 00:11 | 429924 | ||
| 44017_TS_DEWT_012023.nc | 02-Jan-2025 00:16 | 1475764 | ||
| 44017_TS_DEWT_022003.nc | 01-Jan-2025 23:35 | 1626677 | ||
| 44017_TS_DEWT_022004.nc | 01-Jan-2025 23:37 | 1476205 | ||
| 44017_TS_DEWT_022005.nc | 01-Jan-2025 23:39 | 1476319 | ||
| 44017_TS_DEWT_022006.nc | 01-Jan-2025 23:41 | 1626811 | ||
| 44017_TS_DEWT_022007.nc | 01-Jan-2025 23:43 | 1476242 | ||
| 44017_TS_DEWT_022008.nc | 01-Jan-2025 23:45 | 1473487 | ||
| 44017_TS_DEWT_022010.nc | 01-Jan-2025 23:47 | 1626970 | ||
| 44017_TS_DEWT_022011.nc | 01-Jan-2025 23:49 | 1625950 | ||
| 44017_TS_DEWT_022013.nc | 01-Jan-2025 23:50 | 1626769 | ||
| 44017_TS_DEWT_022014.nc | 01-Jan-2025 23:52 | 1626068 | ||
| 44017_TS_DEWT_022016.nc | 01-Jan-2025 23:56 | 1624277 | ||
| 44017_TS_DEWT_022017.nc | 01-Jan-2025 23:58 | 1626503 | ||
| 44017_TS_DEWT_022018.nc | 01-Jan-2025 23:59 | 1626833 | ||
| 44017_TS_DEWT_022019.nc | 02-Jan-2025 00:01 | 1624757 | ||
| 44017_TS_DEWT_022021.nc | 02-Jan-2025 00:06 | 1626663 | ||
| 44017_TS_DEWT_022022.nc | 02-Jan-2025 00:11 | 1471191 | ||
| 44017_TS_DEWT_032003.nc | 01-Jan-2025 23:35 | 1626538 | ||
| 44017_TS_DEWT_032004.nc | 01-Jan-2025 23:37 | 429454 | ||
| 44017_TS_DEWT_032005.nc | 01-Jan-2025 23:39 | 1474366 | ||
| 44017_TS_DEWT_032006.nc | 01-Jan-2025 23:41 | 1476727 | ||
| 44017_TS_DEWT_032007.nc | 01-Jan-2025 23:43 | 1475685 | ||
| 44017_TS_DEWT_032008.nc | 01-Jan-2025 23:45 | 1473476 | ||
| 44017_TS_DEWT_032010.nc | 01-Jan-2025 23:48 | 1476344 | ||
| 44017_TS_DEWT_032011.nc | 01-Jan-2025 23:49 | 1476983 | ||
| 44017_TS_DEWT_032013.nc | 01-Jan-2025 23:50 | 1476735 | ||
| 44017_TS_DEWT_032014.nc | 01-Jan-2025 23:53 | 1476408 | ||
| 44017_TS_DEWT_032016.nc | 01-Jan-2025 23:56 | 1475805 | ||
| 44017_TS_DEWT_032017.nc | 01-Jan-2025 23:58 | 1476751 | ||
| 44017_TS_DEWT_032018.nc | 01-Jan-2025 23:59 | 1476211 | ||
| 44017_TS_DEWT_032019.nc | 02-Jan-2025 00:01 | 1459167 | ||
| 44017_TS_DEWT_032021.nc | 02-Jan-2025 00:07 | 1475647 | ||
| 44017_TS_DEWT_032022.nc | 02-Jan-2025 00:12 | 1476992 | ||
| 44017_TS_DEWT_042003.nc | 01-Jan-2025 23:35 | 1469608 | ||
| 44017_TS_DEWT_042004.nc | 01-Jan-2025 23:37 | 1476871 | ||
| 44017_TS_DEWT_042005.nc | 01-Jan-2025 23:39 | 1476951 | ||
| 44017_TS_DEWT_042006.nc | 01-Jan-2025 23:41 | 1476848 | ||
| 44017_TS_DEWT_042007.nc | 01-Jan-2025 23:43 | 429908 | ||
| 44017_TS_DEWT_042008.nc | 01-Jan-2025 23:45 | 1624651 | ||
| 44017_TS_DEWT_042010.nc | 01-Jan-2025 23:48 | 1625972 | ||
| 44017_TS_DEWT_042011.nc | 01-Jan-2025 23:49 | 1624835 | ||
| 44017_TS_DEWT_042013.nc | 01-Jan-2025 23:51 | 1472734 | ||
| 44017_TS_DEWT_042014.nc | 01-Jan-2025 23:53 | 1626899 | ||
| 44017_TS_DEWT_042015.nc | 01-Jan-2025 23:54 | 1626890 | ||
| 44017_TS_DEWT_042016.nc | 01-Jan-2025 23:56 | 1626747 | ||
| 44017_TS_DEWT_042017.nc | 01-Jan-2025 23:58 | 1626782 | ||
| 44017_TS_DEWT_042018.nc | 01-Jan-2025 23:59 | 1625004 | ||
| 44017_TS_DEWT_042019.nc | 02-Jan-2025 00:01 | 1625921 | ||
| 44017_TS_DEWT_042021.nc | 02-Jan-2025 00:07 | 1474066 | ||
| 44017_TS_DEWT_042022.nc | 02-Jan-2025 00:12 | 1626381 | ||
| 44017_TS_DEWT_052003.nc | 01-Jan-2025 23:36 | 1476156 | ||
| 44017_TS_DEWT_052004.nc | 01-Jan-2025 23:37 | 1626638 | ||
| 44017_TS_DEWT_052005.nc | 01-Jan-2025 23:39 | 1470927 | ||
| 44017_TS_DEWT_052006.nc | 01-Jan-2025 23:41 | 1625846 | ||
| 44017_TS_DEWT_052007.nc | 01-Jan-2025 23:43 | 1474874 | ||
| 44017_TS_DEWT_052008.nc | 01-Jan-2025 23:45 | 1626326 | ||
| 44017_TS_DEWT_052010.nc | 01-Jan-2025 23:48 | 1625672 | ||
| 44017_TS_DEWT_052011.nc | 01-Jan-2025 23:50 | 1475377 | ||
| 44017_TS_DEWT_052013.nc | 01-Jan-2025 23:51 | 1477248 | ||
| 44017_TS_DEWT_052014.nc | 01-Jan-2025 23:53 | 1626612 | ||
| 44017_TS_DEWT_052015.nc | 01-Jan-2025 23:54 | 1473061 | ||
| 44017_TS_DEWT_052016.nc | 01-Jan-2025 23:56 | 1468749 | ||
| 44017_TS_DEWT_052017.nc | 01-Jan-2025 23:58 | 1470001 | ||
| 44017_TS_DEWT_052018.nc | 02-Jan-2025 00:00 | 1464422 | ||
| 44017_TS_DEWT_052019.nc | 02-Jan-2025 00:02 | 1469719 | ||
| 44017_TS_DEWT_052020.nc | 02-Jan-2025 00:03 | 1149030 | ||
| 44017_TS_DEWT_052021.nc | 02-Jan-2025 00:07 | 1470374 | ||
| 44017_TS_DEWT_052022.nc | 02-Jan-2025 00:12 | 1477187 | ||
| 44017_TS_DEWT_062003.nc | 01-Jan-2025 23:36 | 1467977 | ||
| 44017_TS_DEWT_062005.nc | 01-Jan-2025 23:39 | 1458648 | ||
| 44017_TS_DEWT_062006.nc | 01-Jan-2025 23:41 | 1460541 | ||
| 44017_TS_DEWT_062007.nc | 01-Jan-2025 23:43 | 1471940 | ||
| 44017_TS_DEWT_062008.nc | 01-Jan-2025 23:45 | 1460322 | ||
| 44017_TS_DEWT_062010.nc | 01-Jan-2025 23:48 | 1460834 | ||
| 44017_TS_DEWT_062011.nc | 01-Jan-2025 23:50 | 1466679 | ||
| 44017_TS_DEWT_062013.nc | 01-Jan-2025 23:51 | 1474699 | ||
| 44017_TS_DEWT_062015.nc | 01-Jan-2025 23:54 | 1459411 | ||
| 44017_TS_DEWT_062016.nc | 01-Jan-2025 23:56 | 1459858 | ||
| 44017_TS_DEWT_062017.nc | 01-Jan-2025 23:58 | 1472198 | ||
| 44017_TS_DEWT_062018.nc | 02-Jan-2025 00:00 | 1471842 | ||
| 44017_TS_DEWT_062019.nc | 02-Jan-2025 00:02 | 1468556 | ||
| 44017_TS_DEWT_062020.nc | 02-Jan-2025 00:04 | 1460706 | ||
| 44017_TS_DEWT_062021.nc | 02-Jan-2025 00:08 | 1475709 | ||
| 44017_TS_DEWT_062022.nc | 02-Jan-2025 00:13 | 1472312 | ||
| 44017_TS_DEWT_072003.nc | 01-Jan-2025 23:36 | 1475701 | ||
| 44017_TS_DEWT_072005.nc | 01-Jan-2025 23:40 | 1465504 | ||
| 44017_TS_DEWT_072006.nc | 01-Jan-2025 23:42 | 1476282 | ||
| 44017_TS_DEWT_072007.nc | 01-Jan-2025 23:44 | 1471119 | ||
| 44017_TS_DEWT_072010.nc | 01-Jan-2025 23:48 | 1468637 | ||
| 44017_TS_DEWT_072011.nc | 01-Jan-2025 23:50 | 1460108 | ||
| 44017_TS_DEWT_072013.nc | 01-Jan-2025 23:51 | 1472826 | ||
| 44017_TS_DEWT_072015.nc | 01-Jan-2025 23:55 | 1155765 | ||
| 44017_TS_DEWT_072016.nc | 01-Jan-2025 23:57 | 1468819 | ||
| 44017_TS_DEWT_072017.nc | 01-Jan-2025 23:58 | 1155979 | ||
| 44017_TS_DEWT_072018.nc | 02-Jan-2025 00:00 | 1473601 | ||
| 44017_TS_DEWT_072019.nc | 02-Jan-2025 00:02 | 1146982 | ||
| 44017_TS_DEWT_072020.nc | 02-Jan-2025 00:04 | 1472956 | ||
| 44017_TS_DEWT_072021.nc | 02-Jan-2025 00:08 | 1472179 | ||
| 44017_TS_DEWT_072022.nc | 02-Jan-2025 00:13 | 1458595 | ||
| 44017_TS_DEWT_082003.nc | 01-Jan-2025 23:36 | 1476245 | ||
| 44017_TS_DEWT_082005.nc | 01-Jan-2025 23:40 | 1464426 | ||
| 44017_TS_DEWT_082006.nc | 01-Jan-2025 23:42 | 1626238 | ||
| 44017_TS_DEWT_082007.nc | 01-Jan-2025 23:44 | 1626495 | ||
| 44017_TS_DEWT_082010.nc | 01-Jan-2025 23:48 | 1626964 | ||
| 44017_TS_DEWT_082011.nc | 01-Jan-2025 23:50 | 1625097 | ||
| 44017_TS_DEWT_082013.nc | 01-Jan-2025 23:51 | 993738 | ||
| 44017_TS_DEWT_082015.nc | 01-Jan-2025 23:55 | 429525 | ||
| 44017_TS_DEWT_082016.nc | 01-Jan-2025 23:57 | 1267857 | ||
| 44017_TS_DEWT_082017.nc | 01-Jan-2025 23:59 | 1143837 | ||
| 44017_TS_DEWT_082018.nc | 02-Jan-2025 00:00 | 472123 | ||
| 44017_TS_DEWT_082019.nc | 02-Jan-2025 00:03 | 1107921 | ||
| 44017_TS_DEWT_082020.nc | 02-Jan-2025 00:04 | 1265004 | ||
| 44017_TS_DEWT_082021.nc | 02-Jan-2025 00:09 | 1012178 | ||
| 44017_TS_DEWT_082022.nc | 02-Jan-2025 00:14 | 4812875 | ||
| 44017_TS_DEWT_092002.nc | 01-Jan-2025 23:34 | 3191170 | ||
| 44017_TS_DEWT_092003.nc | 01-Jan-2025 23:36 | 1032291 | ||
| 44017_TS_DEWT_092005.nc | 01-Jan-2025 23:40 | 993360 | ||
| 44017_TS_DEWT_092006.nc | 01-Jan-2025 23:42 | 438787 | ||
| 44017_TS_DEWT_092007.nc | 01-Jan-2025 23:44 | 1008119 | ||
| 44017_TS_DEWT_092010.nc | 01-Jan-2025 23:49 | 1027821 | ||
| 44017_TS_DEWT_092013.nc | 01-Jan-2025 23:52 | 421312 | ||
| 44017_TS_DEWT_092015.nc | 01-Jan-2025 23:55 | 3211614 | ||
| 44017_TS_DEWT_092016.nc | 01-Jan-2025 23:57 | 4811006 | ||
| 44017_TS_DEWT_092017.nc | 01-Jan-2025 23:59 | 1267467 | ||
| 44017_TS_DEWT_092018.nc | 02-Jan-2025 00:00 | 1143921 | ||
| 44017_TS_DEWT_092020.nc | 02-Jan-2025 00:05 | 418799 | ||
| 44017_TS_DEWT_092021.nc | 02-Jan-2025 00:09 | 1008215 | ||
| 44017_TS_DEWT_092022.nc | 02-Jan-2025 00:14 | 1265921 | ||
| 44017_TS_DEWT_102002.nc | 01-Jan-2025 23:34 | 3962591 | ||
| 44017_TS_DEWT_102003.nc | 01-Jan-2025 23:36 | 3358102 | ||
| 44017_TS_DEWT_102005.nc | 01-Jan-2025 23:40 | 1111648 | ||
| 44017_TS_DEWT_102006.nc | 01-Jan-2025 23:42 | 995017 | ||
| 44017_TS_DEWT_102007.nc | 01-Jan-2025 23:44 | 1020879 | ||
| 44017_TS_DEWT_102010.nc | 01-Jan-2025 23:49 | 1015752 | ||
| 44017_TS_DEWT_102013.nc | 01-Jan-2025 23:52 | 1114345 | ||
| 44017_TS_DEWT_102015.nc | 01-Jan-2025 23:55 | 4528087 | ||
| 44017_TS_DEWT_102016.nc | 01-Jan-2025 23:57 | 1263953 | ||
| 44017_TS_DEWT_102017.nc | 01-Jan-2025 23:59 | 1143940 | ||
| 44017_TS_DEWT_102018.nc | 02-Jan-2025 00:00 | 1266021 | ||
| 44017_TS_DEWT_102020.nc | 02-Jan-2025 00:05 | 1016602 | ||
| 44017_TS_DEWT_102021.nc | 02-Jan-2025 00:10 | 1264546 | ||
| 44017_TS_DEWT_102022.nc | 02-Jan-2025 00:14 | 5707728 | ||
| 44017_TS_DEWT_112002.nc | 01-Jan-2025 23:35 | 1039610 | ||
| 44017_TS_DEWT_112003.nc | 01-Jan-2025 23:36 | 995046 | ||
| 44017_TS_DEWT_112005.nc | 01-Jan-2025 23:40 | 1108487 | ||
| 44017_TS_DEWT_112006.nc | 01-Jan-2025 23:42 | 1007824 | ||
| 44017_TS_DEWT_112007.nc | 01-Jan-2025 23:44 | 1113133 | ||
| 44017_TS_DEWT_112010.nc | 01-Jan-2025 23:49 | 5266601 | ||
| 44017_TS_DEWT_112013.nc | 01-Jan-2025 23:52 | 995054 | ||
| 44017_TS_DEWT_112015.nc | 01-Jan-2025 23:55 | 1006260 | ||
| 44017_TS_DEWT_112016.nc | 01-Jan-2025 23:57 | 1263988 | ||
| 44017_TS_DEWT_112018.nc | 02-Jan-2025 00:01 | 1015608 | ||
| 44017_TS_DEWT_112021.nc | 02-Jan-2025 00:10 | 1266003 | ||
| 44017_TS_DEWT_112022.nc | 02-Jan-2025 00:15 | 4801680 | ||
| 44017_TS_DEWT_122002.nc | 01-Jan-2025 23:35 | 995988 | ||
| 44017_TS_DEWT_122003.nc | 01-Jan-2025 23:37 | 1262166 | ||
| 44017_TS_DEWT_122004.nc | 01-Jan-2025 23:38 | 1113656 | ||
| 44017_TS_DEWT_122005.nc | 01-Jan-2025 23:41 | 1018997 | ||
| 44017_TS_DEWT_122006.nc | 01-Jan-2025 23:42 | 1264341 | ||
| 44017_TS_DEWT_122007.nc | 01-Jan-2025 23:44 | 5514985 | ||
| 44017_TS_DEWT_122010.nc | 01-Jan-2025 23:49 | 606470 | ||
| 44017_TS_DEWT_122013.nc | 01-Jan-2025 23:52 | 1110668 | ||
| 44017_TS_DEWT_122015.nc | 01-Jan-2025 23:55 | 1022919 | ||
| 44017_TS_DEWT_122016.nc | 01-Jan-2025 23:57 | 1006936 | ||
| 44017_TS_DEWT_122018.nc | 02-Jan-2025 00:01 | 1108737 | ||
| 44017_TS_DEWT_122020.nc | 02-Jan-2025 00:06 | 4293217 | ||
| 44017_TS_DEWT_122021.nc | 02-Jan-2025 00:10 | 427041 | ||
| 44017_TS_DEWT_122022.nc | 02-Jan-2025 00:15 | 608058 | ||